Volver al catálogo

IRIDIUM 33 DEB

ActivoPO
NORAD 33866·DEBRIS·🇺🇸 United States

Lanzado Sep 14, 1997 desde Baikonur Cosmodrome

Loading…

Próximos Pases (próximas 24 horas)

TLE

ActualizadoSource: Space-Track

Época: Sep 14, 2026, 04:22 UTC

1 33866U 97051AK  26257.18244112  .00001714  00000-0  65701-3 0  9998
2 33866  86.3054 336.3687 0109853 356.6797  31.2386 14.26789892907363

Sigue IRIDIUM 33 DEB en tiempo real con AllMySat

Download on the App Store